This demonstration page uses our WeatherBlox Daily Observations layout. Learn more.

Hourly Observations for April 18, 2015

Temp ( °F °C ) Dew Point ( °F °C ) Humidity (%) Winds ( mph kmh ) Pressure ( in mb ) Visibility ( mi km ) Precip ( " mm )
12:35 am 00:35 Partly Cloudy 57 13.8 53 11.9 88 88 E 10 17 29.94 1014 10 16.0934 0 0
12:55 am 00:55 Mostly Cloudy 56 13.6 54 12 90 90 E 9 15 29.94 1014 10 16.0934 0 0
1:15 am 01:15 Cloudy with Light Rain 56 13.4 54 12 91 91 E 9 15 29.91 1013 7 11.26538 0 0
1:35 am 01:35 Cloudy 56 13.5 54 12.1 91 91 E 12 19 29.91 1013 7 11.26538 0.02 0.508
1:55 am 01:55 Cloudy with Thunderstorms 56 13.5 54 12.2 92 92 E 10 17 29.91 1013 7 11.26538 0.05 1.27
2:15 am 02:15 Cloudy with Thunderstorms 56 13.3 54 12.2 93 93 S 9 15 29.91 1013 5 8.0467 0.03 0.762
2:35 am 02:35 Cloudy with Thunderstorms 56 13.6 55 12.7 94 94 S 10 17 29.91 1013 4 6.43736 0.16 4.064
2:55 am 02:55 Cloudy with Light Thunderstorms 56 13.5 55 12.5 94 94 WSW 6 9 29.91 1013 5 8.0467 0.18 4.572
3:15 am 03:15 Cloudy with Thunderstorms 55 12.6 52 11.2 91 91 W 7 11 29.91 1013 5 8.0467 0.05 1.27
3:35 am 03:35 Cloudy with Light Rain 54 12.2 52 11 92 92 WSW 6 9 29.91 1013 10 16.0934 0.08 2.032
3:55 am 03:55 Cloudy 54 12.2 52 11.1 93 93 W 8 13 29.91 1013 10 16.0934 0.08 2.032
4:15 am 04:15 Cloudy with Light Rain 54 12.2 52 11 92 92 WSW 8 13 29.91 1013 10 16.0934 0.01 0.254
4:35 am 04:35 Cloudy 54 12.2 52 11.1 93 93 WNW 6 9 29.88 1012 7 11.26538 0.03 0.762
4:55 am 04:55 Cloudy with Rain 54 12.1 52 11 93 93 N 7 11 29.85 1011 10 16.0934 0.04 1.016
5:15 am 05:15 Cloudy 53 11.8 51 10.8 94 94 NNE 9 15 29.85 1011 10 16.0934 0 0
5:35 am 05:35 Mostly Cloudy with Nearby Thunderstorms 53 11.6 51 10.6 94 94 N 7 11 29.85 1011 10 16.0934 0 0
5:55 am 05:55 Partly Cloudy 53 11.5 51 10.6 94 94 N 5 7 29.85 1011 10 16.0934 0 0
6:15 am 06:15 Clear 52 11.1 50 10.2 94 94 Calm 29.88 1012 10 16.0934 0 0
6:35 am 06:35 Mostly Cloudy 52 11 50 10.1 94 94 Calm 29.91 1013 10 16.0934 0 0
6:55 am 06:55 Mostly Cloudy 52 11.3 51 10.6 96 96 N 3 6 29.91 1013 10 16.0934 0 0
7:15 am 07:15 Partly Cloudy 51 10.8 50 10 95 95 Calm 29.91 1013 7 11.26538 0 0
7:35 am 07:35 Cloudy 52 11.1 51 10.5 96 96 Calm 29.94 1014 7 11.26538 0 0
7:55 am 07:55 Cloudy 53 11.6 51 10.8 95 95 Calm 29.91 1013 10 16.0934 0 0
8:15 am 08:15 Cloudy 53 11.8 52 11 95 95 Calm 29.88 1012 7 11.26538 0 0
8:35 am 08:35 Cloudy 54 12 52 11 94 94 NE 3 6 29.88 1012 7 11.26538 0 0
8:55 am 08:55 Cloudy with Mist and Fog 54 12.2 52 11.3 94 94 Calm 29.88 1012 5 8.0467 0 0
9:15 am 09:15 Cloudy 55 12.5 53 11.5 94 94 Calm 29.88 1012 7 11.26538 0 0
9:35 am 09:35 Mostly Cloudy 56 13.1 53 11.4 90 90 NE 3 6 29.85 1011 10 16.0934 0 0
9:55 am 09:55 Partly Cloudy 57 14 52 11.3 84 84 Calm 29.88 1012 10 16.0934 0 0
10:15 am 10:15 Mostly Cloudy 58 14.3 53 11.5 83 83 W 3 6 29.88 1012 10 16.0934 0 0
10:35 am 10:35 Partly Cloudy 59 15 53 11.9 82 82 Calm 29.88 1012 10 16.0934 0 0
10:55 am 10:55 Partly Cloudy 60 15.8 55 12.5 81 81 Calm 29.85 1011 10 16.0934 0 0
11:15 am 11:15 Partly Cloudy 61 16.1 54 12.1 77 77 Calm 29.85 1011 10 16.0934 0 0
11:35 am 11:35 Sunny 62 16.6 53 11.7 73 73 Calm 29.83 1010 10 16.0934 0 0
11:55 am 11:55 Partly Cloudy 64 17.7 53 11.5 67 67 Calm 29.83 1010 10 16.0934 0 0
12:15 pm 12:15 Partly Cloudy 64 17.7 52 11.2 66 66 ESE 6 9 29.83 1010 10 16.0934 0 0
12:35 pm 12:35 Partly Cloudy 66 18.8 50 10 57 57 SSW 3 6 29.8 1009 10 16.0934 0 0
12:55 pm 12:55 Partly Cloudy 66 18.8 48 8.8 52 52 SW 6 9 29.77 1008 10 16.0934 0 0
1:15 pm 13:15 Partly Cloudy 66 18.8 50 9.9 56 56 WSW 6 9 29.77 1008 10 16.0934 0 0
1:35 pm 13:35 Partly Cloudy 67 19.5 49 9.6 53 53 Calm 29.77 1008 10 16.0934 0 0
1:55 pm 13:55 Partly Cloudy 68 20 50 10 53 53 SSW 7 11 29.77 1008 10 16.0934 0 0
2:15 pm 14:15 Partly Cloudy 67 19.6 48 8.8 50 50 S 3 6 29.74 1007 10 16.0934 0 0
2:35 pm 14:35 Partly Cloudy 68 20.1 49 9.2 50 50 ESE 5 7 29.74 1007 10 16.0934 0 0
2:55 pm 14:55 Mostly Cloudy 69 20.8 50 10.1 51 51 Calm 29.74 1007 10 16.0934 0 0
3:15 pm 15:15 Partly Cloudy 70 21.1 48 8.9 46 46 Calm 29.74 1007 10 16.0934 0 0
3:35 pm 15:35 Partly Cloudy 70 20.9 48 9.1 47 47 Calm 29.68 1005 10 16.0934 0 0
3:55 pm 15:55 Partly Cloudy 71 21.6 49 9.7 47 47 W 5 7 29.68 1005 10 16.0934 0 0
4:15 pm 16:15 Partly Cloudy 71 21.4 48 8.8 45 45 Calm 29.68 1005 10 16.0934 0 0
4:35 pm 16:35 Sunny 71 21.9 46 7.9 41 41 Calm 29.68 1005 10 16.0934 0 0
4:55 pm 16:55 Mostly Cloudy 71 21.4 45 7.1 40 40 Calm 29.68 1005 10 16.0934 0 0
5:15 pm 17:15 Cloudy 70 20.9 48 8.9 46 46 NE 6 9 29.65 1004 10 16.0934 0 0
5:35 pm 17:35 Mostly Cloudy 69 20.6 48 8.8 47 47 ENE 9 15 29.65 1004 10 16.0934 0 0
5:55 pm 17:55 Mostly Cloudy 67 19.3 51 10.3 56 56 E 14 22 29.68 1005 10 16.0934 0 0
6:15 pm 18:15 Partly Cloudy 65 18.3 51 10.3 60 60 E 10 17 29.68 1005 10 16.0934 0 0
6:35 pm 18:35 Partly Cloudy 64 18 49 9.3 57 57 E 12 19 29.68 1005 10 16.0934 0 0
6:55 pm 18:55 Partly Cloudy with Nearby Thunderstorms 63 17.4 49 9.5 60 60 E 8 13 29.74 1007 10 16.0934 0 0
7:15 pm 19:15 Mostly Cloudy 61 16.1 51 10.6 70 70 E 14 22 29.74 1007 10 16.0934 0 0
7:35 pm 19:35 Cloudy with Heavy Thunderstorms 56 13.6 46 7.5 67 67 SSE 24 39 29.74 1007 2 3.21868 0.36 9.144
7:55 pm 19:55 Cloudy 56 13.3 45 7 66 66 SE 14 22 29.77 1008 7 11.26538 0.64 16.256
8:15 pm 20:15 Cloudy 57 14 46 7.7 66 66 SE 14 22 29.74 1007 10 16.0934 0 0
8:35 pm 20:35 Cloudy 55 12.8 47 8.1 73 73 ESE 13 20 29.77 1008 10 16.0934 0 0
8:55 pm 20:55 Cloudy 55 13 46 7.8 71 71 ESE 8 13 29.8 1009 10 16.0934 0 0
9:15 pm 21:15 Cloudy 54 12.2 47 8.5 78 78 ENE 10 17 29.8 1009 10 16.0934 0 0
9:35 pm 21:35 Cloudy with Light Rain 53 11.5 48 9.1 85 85 NE 10 17 29.8 1009 10 16.0934 0 0
9:55 pm 21:55 Cloudy with Light Drizzle 52 11.3 49 9.2 87 87 E 6 9 29.85 1011 10 16.0934 0 0
10:15 pm 22:15 Cloudy 53 11.5 48 9 85 85 NE 5 7 29.8 1009 10 16.0934 0 0
10:35 pm 22:35 Cloudy 52 11.3 49 9.5 89 89 NNE 8 13 29.8 1009 10 16.0934 0 0
10:55 pm 22:55 Cloudy 53 11.5 49 9.4 87 87 NE 10 17 29.77 1008 10 16.0934 0 0
11:15 pm 23:15 Mostly Cloudy 52 11.3 47 8.6 84 84 NNE 9 15 29.77 1008 10 16.0934 0.01 0.254
11:35 pm 23:35 Mostly Cloudy 52 11.2 47 8.2 82 82 NE 10 17 29.77 1008 10 16.0934 0.01 0.254
11:55 pm 23:55 Mostly Cloudy 52 10.9 47 8.5 85 85 SE 8 13 29.77 1008 10 16.0934 0.01 0.254

Powered by AerisWeather